TimePST,TemperatureF,Dew PointF,Humidity,Sea Level PressureIn,VisibilityMPH,Wind Direction,Wind SpeedMPH,Gust SpeedMPH,PrecipitationIn,Events,Conditions,WindDirDegrees,DateUTC
12:53 AM,15.1,10.9,84,29.99,10.0,West,4.6,-,N/A,,Clear,260,2013-02-21 08:53:00
1:53 AM,15.1,10.0,80,30.00,10.0,WSW,4.6,-,N/A,,Clear,240,2013-02-21 09:53:00
3:53 AM,15.1,12.9,91,30.01,10.0,West,3.5,-,N/A,,Scattered Clouds,260,2013-02-21 11:53:00
4:04 AM,15.8,12.2,86,29.83,10.0,Variable,3.5,-,N/A,,Mostly Cloudy,0,2013-02-21 12:04:00
4:36 AM,15.8,12.2,86,29.83,10.0,WSW,6.9,-,N/A,,Overcast,240,2013-02-21 12:36:00
4:53 AM,15.1,12.9,91,30.03,10.0,SW,4.6,-,N/A,,Overcast,230,2013-02-21 12:53:00
5:53 AM,15.1,12.9,91,30.02,10.0,Variable,4.6,-,N/A,,Overcast,0,2013-02-21 13:53:00
6:28 AM,15.8,14.0,93,29.83,7.0,SSW,4.6,-,0.00,Snow,Light Snow,210,2013-02-21 14:28:00
6:53 AM,16.0,14.0,92,30.02,3.0,Variable,4.6,-,0.00,Snow,Light Snow,0,2013-02-21 14:53:00
6:57 AM,15.8,14.0,93,29.82,1.8,Variable,4.6,-,0.00,Snow,Light Snow,0,2013-02-21 14:57:00
7:53 AM,16.0,15.1,96,30.03,3.0,Variable,3.5,-,0.00,Snow,Light Snow,0,2013-02-21 15:53:00
8:12 AM,15.8,15.8,100,29.82,2.0,South,6.9,-,0.00,Snow,Light Snow,190,2013-02-21 16:12:00
8:19 AM,15.8,14.0,93,29.82,1.8,South,6.9,-,0.00,Snow,Light Snow,180,2013-02-21 16:19:00
8:26 AM,15.8,14.0,93,29.82,2.0,Variable,6.9,-,0.00,Snow,Light Snow,0,2013-02-21 16:26:00
8:43 AM,15.8,15.8,100,29.83,3.0,Variable,4.6,-,0.00,Snow,Light Snow,0,2013-02-21 16:43:00
8:53 AM,16.0,15.1,96,30.04,3.0,Variable,4.6,-,0.00,,Overcast,0,2013-02-21 16:53:00
9:02 AM,15.8,15.8,100,29.83,2.0,SW,4.6,-,0.00,Snow,Light Snow,230,2013-02-21 17:02:00
9:16 AM,15.8,15.8,100,29.84,1.2,Calm,Calm,-,0.00,Snow,Light Snow,0,2013-02-21 17:16:00
9:53 AM,17.1,15.1,92,30.04,1.0,Variable,4.6,-,0.00,Snow,Light Snow,0,2013-02-21 17:53:00
10:18 AM,17.6,15.8,93,29.84,0.5,Variable,3.5,-,0.00,Fog-Snow,Light Snow,0,2013-02-21 18:18:00
10:24 AM,17.6,15.8,93,29.84,1.5,Variable,3.5,-,0.00,Snow,Light Snow,0,2013-02-21 18:24:00
10:40 AM,17.6,15.8,93,29.84,2.5,Calm,Calm,-,0.00,Snow,Light Snow,0,2013-02-21 18:40:00
10:53 AM,17.1,16.0,96,30.04,2.0,Variable,3.5,-,0.00,Snow,Light Snow,0,2013-02-21 18:53:00
11:03 AM,17.6,17.6,100,29.83,1.2,Variable,4.6,-,0.00,Snow,Light Snow,0,2013-02-21 19:03:00
11:13 AM,17.6,17.6,100,29.83,1.8,Variable,5.8,-,0.00,Snow,Light Snow,0,2013-02-21 19:13:00
11:18 AM,17.6,17.6,100,29.83,0.8,Variable,4.6,-,0.00,Snow,Light Snow,0,2013-02-21 19:18:00
11:28 AM,19.4,17.6,93,29.83,-9999.0,Variable,4.6,-,0.00,Snow,Snow,0,2013-02-21 19:28:00
11:53 AM,19.0,18.0,96,30.02,2.5,Variable,6.9,-,0.00,Snow,Light Snow,0,2013-02-21 19:53:00
12:01 PM,19.4,17.6,93,29.82,3.0,SW,6.9,-,0.00,Snow,Light Snow,230,2013-02-21 20:01:00
12:17 PM,19.4,19.4,100,29.81,1.8,Variable,6.9,-,0.00,Snow,Light Snow,0,2013-02-21 20:17:00
12:21 PM,19.4,19.4,100,29.82,0.8,SSW,8.1,-,0.07,Snow,Light Snow,210,2013-02-21 20:21:00
12:34 PM,19.4,17.6,93,29.81,1.5,Variable,6.9,19.6,0.11,Snow,Light Snow,0,2013-02-21 20:34:00
12:42 PM,19.4,17.6,93,29.81,0.8,Variable,6.9,-,0.13,Snow,Light Snow,0,2013-02-21 20:42:00
12:53 PM,19.9,18.0,92,29.99,1.2,Variable,5.8,-,0.15,Snow,Light Snow,0,2013-02-21 20:53:00
1:00 PM,19.4,17.6,93,29.80,2.0,Variable,5.8,-,0.00,Snow,Light Snow,0,2013-02-21 21:00:00
1:05 PM,19.4,17.6,93,29.80,1.2,Variable,5.8,-,0.00,Snow,Light Snow,0,2013-02-21 21:05:00
1:15 PM,19.4,17.6,93,29.80,0.8,Variable,3.5,-,0.00,Snow,Light Snow,0,2013-02-21 21:15:00
1:27 PM,19.4,17.6,93,29.79,1.0,Variable,4.6,-,0.05,Snow,Light Snow,0,2013-02-21 21:27:00
1:35 PM,19.4,17.6,93,29.79,0.8,Calm,Calm,-,0.06,Snow,Light Snow,0,2013-02-21 21:35:00
1:53 PM,19.0,18.0,96,29.98,0.5,Variable,3.5,-,0.06,Fog-Snow,Light Snow,0,2013-02-21 21:53:00
2:36 PM,19.4,17.6,93,29.78,0.5,Variable,3.5,-,0.01,Fog-Snow,Snow,0,2013-02-21 22:36:00
2:53 PM,19.9,18.0,92,29.97,0.5,Variable,3.5,-,0.02,Fog-Snow,Snow,0,2013-02-21 22:53:00
3:00 PM,19.4,17.6,93,29.79,0.5,SSW,4.6,-,0.01,Fog-Snow,Snow,210,2013-02-21 23:00:00
3:53 PM,19.9,18.0,92,29.97,0.5,WSW,8.1,-,0.03,Fog-Snow,Snow,240,2013-02-21 23:53:00
4:16 PM,19.4,17.6,93,29.78,1.0,Variable,4.6,-,0.00,Snow,Light Snow,0,2013-02-22 00:16:00
4:36 PM,19.4,17.6,93,29.79,0.8,Variable,4.6,-,0.01,Snow,Light Snow,0,2013-02-22 00:36:00
4:53 PM,19.9,19.0,96,29.97,0.2,Variable,4.6,-,0.01,Fog-Snow,Snow,0,2013-02-22 00:53:00
5:02 PM,19.4,19.4,100,29.79,0.2,Calm,Calm,-,0.01,Fog-Snow,Snow,0,2013-02-22 01:02:00
5:21 PM,19.4,19.4,100,29.79,0.5,Variable,3.5,-,0.02,Fog-Snow,Snow,0,2013-02-22 01:21:00
5:44 PM,19.4,17.6,93,29.79,1.2,Variable,6.9,-,0.03,Snow,Light Snow,0,2013-02-22 01:44:00
5:53 PM,19.9,18.0,92,29.98,0.8,Variable,5.8,-,0.03,Snow,Light Snow,0,2013-02-22 01:53:00
6:19 PM,19.4,17.6,93,29.80,1.5,Variable,3.5,-,0.01,Snow,Light Snow,0,2013-02-22 02:19:00
6:27 PM,19.4,17.6,93,29.80,2.0,Variable,3.5,-,0.01,Snow,Light Snow,0,2013-02-22 02:27:00
6:31 PM,19.4,17.6,93,29.80,1.2,Variable,4.6,-,0.01,Snow,Light Snow,0,2013-02-22 02:31:00
6:49 PM,19.4,17.6,93,29.81,2.0,Variable,4.6,-,0.02,Snow,Light Snow,0,2013-02-22 02:49:00
6:53 PM,19.9,18.0,92,29.99,4.0,Variable,3.5,-,0.02,Snow,Light Snow,0,2013-02-22 02:53:00
7:06 PM,19.4,17.6,93,29.81,5.0,Calm,Calm,-,0.00,Snow,Light Snow,0,2013-02-22 03:06:00
7:10 PM,19.4,19.4,100,29.81,1.8,Variable,4.6,-,0.00,Snow,Light Snow,0,2013-02-22 03:10:00
7:18 PM,19.4,17.6,93,29.82,1.0,Variable,3.5,-,0.00,Snow,Light Snow,0,2013-02-22 03:18:00
7:31 PM,19.4,17.6,93,29.82,0.5,Variable,4.6,-,0.01,Fog-Snow,Light Snow,0,2013-02-22 03:31:00
7:53 PM,19.9,19.0,96,30.00,1.0,Variable,3.5,-,0.02,Snow,Light Snow,0,2013-02-22 03:53:00
8:06 PM,19.4,17.6,93,29.81,0.8,Variable,5.8,-,0.01,Snow,Light Snow,0,2013-02-22 04:06:00
8:29 PM,21.2,19.4,93,29.82,1.0,Variable,4.6,-,0.02,Snow,Light Snow,0,2013-02-22 04:29:00
8:45 PM,21.2,19.4,93,29.82,0.8,Variable,4.6,-,0.02,Snow,Light Snow,0,2013-02-22 04:45:00
8:53 PM,21.0,19.0,92,29.99,1.0,Variable,4.6,-,0.02,Snow,Light Snow,0,2013-02-22 04:53:00
9:06 PM,21.2,19.4,93,29.82,0.8,Variable,5.8,-,0.00,Snow,Light Snow,0,2013-02-22 05:06:00
9:12 PM,21.2,19.4,93,29.82,1.5,Variable,4.6,-,0.00,Snow,Light Snow,0,2013-02-22 05:12:00
9:15 PM,21.2,19.4,93,29.83,3.0,Variable,3.5,-,0.00,Snow,Light Snow,0,2013-02-22 05:15:00
9:30 PM,21.2,19.4,93,29.82,1.8,Variable,3.5,-,0.00,Snow,Light Snow,0,2013-02-22 05:30:00
9:34 PM,21.2,19.4,93,29.83,0.8,Calm,Calm,-,0.00,Snow,Light Snow,0,2013-02-22 05:34:00
9:48 PM,21.2,19.4,93,29.83,1.5,Variable,4.6,-,0.00,Snow,Light Snow,0,2013-02-22 05:48:00
9:53 PM,21.9,19.0,89,30.00,2.5,Variable,5.8,-,0.00,Snow,Light Snow,0,2013-02-22 05:53:00
10:02 PM,21.2,19.4,93,29.83,1.2,Variable,4.6,-,0.00,Snow,Light Snow,0,2013-02-22 06:02:00
10:43 PM,23.0,19.4,86,29.84,0.2,Variable,5.8,-,0.00,Fog-Snow,Light Snow,0,2013-02-22 06:43:00
11:03 PM,23.0,19.4,86,29.83,0.5,WSW,6.9,21.9,0.00,Fog-Snow,Light Snow,250,2013-02-22 07:03:00
11:13 PM,23.0,19.4,86,29.83,0.2,Variable,5.8,-,0.00,Fog-Rain,Light Freezing Rain,0,2013-02-22 07:13:00
11:21 PM,23.0,19.4,86,29.83,0.5,SSW,8.1,-,0.00,Fog-Rain,Light Freezing Rain,210,2013-02-22 07:21:00
11:42 PM,23.0,19.4,86,29.82,0.2,Variable,6.9,-,0.00,Fog-Snow,Light Snow,0,2013-02-22 07:42:00
11:53 PM,24.1,19.9,84,29.97,0.5,Variable,5.8,-,0.00,Fog-Snow,Light Snow,0,2013-02-22 07:53:00